• In Uzbekistan
  • List of Countries
  • For 7 days
  • Water Temperature
  • Satellite Maps
  • Weather Map
  • Weather Widgets
  • user-avatar
    Login

    Hourly Weather Vransko

    Today, 19 October, Friday

    Time Temperature Precipitation Wind Pressure Humidity
    00:00 +12°C° 0 mm 1 mps 729 mmHg 86%
    01:00 +12°C° 0 mm 1 mps 729 mmHg 86%
    02:00 +12°C° 0 mm 1 mps 729 mmHg 86%
    03:00 +12°C° 0 mm 1 mps 729 mmHg 86%
    04:00 +10°C° 0 mm 0 mps 729 mmHg 87%
    05:00 +10°C° 0 mm 0 mps 729 mmHg 87%
    06:00 +10°C° 0 mm 0 mps 729 mmHg 87%
    07:00 +10°C° 0 mm 0 mps 730 mmHg 87%
    08:00 +14°C° 0 mm 1 mps 730 mmHg 78%
    09:00 +16°C° 0 mm 1 mps 730 mmHg 68%
    10:00 +19°C° 0 mm 1 mps 730 mmHg 59%
    11:00 +20°C° 0 mm 1 mps 730 mmHg 57%
    12:00 +21°C° 0 mm 1 mps 730 mmHg 54%
    13:00 +22°C° 0 mm 1 mps 730 mmHg 52%
    14:00 +21°C° 0 mm 1 mps 730 mmHg 56%
    15:00 +20°C° 0 mm 1 mps 730 mmHg 60%
    16:00 +19°C° 0 mm 1 mps 730 mmHg 65%
    17:00 +16°C° 0 mm 1 mps 730 mmHg 71%
    18:00 +14°C° 0 mm 0 mps 730 mmHg 77%
    19:00 +12°C° 0 mm 0 mps 731 mmHg 84%
    20:00 +11°C° 0 mm 0 mps 731 mmHg 85%
    21:00 +11°C° 0 mm 0 mps 731 mmHg 86%
    22:00 +11°C° 0 mm 0 mps 731 mmHg 88%
    23:00 +10°C° 0 mm 0 mps 731 mmHg 88%

    Tomorrow, 20 October, Saturday

    Time Temperature Precipitation Wind Pressure Humidity
    00:00 +10°C° 0 mm 0 mps 732 mmHg 89%
    01:00 +10°C° 0 mm 0 mps 732 mmHg 90%
    02:00 +9°C° 0 mm 0 mps 732 mmHg 90%
    03:00 +9°C° 0 mm 0 mps 732 mmHg 91%
    04:00 +9°C° 0 mm 0 mps 732 mmHg 92%
    05:00 +9°C° 0 mm 0 mps 732 mmHg 91%
    06:00 +9°C° 0 mm 0 mps 732 mmHg 91%
    07:00 +9°C° 0 mm 0 mps 733 mmHg 91%
    08:00 +13°C° 0 mm 1 mps 733 mmHg 81%
    09:00 +15°C° 0 mm 1 mps 733 mmHg 72%
    10:00 +19°C° 0 mm 1 mps 734 mmHg 62%
    11:00 +19°C° 0 mm 1 mps 734 mmHg 59%
    12:00 +20°C° 0 mm 1 mps 734 mmHg 55%
    13:00 +21°C° 0 mm 1 mps 734 mmHg 52%
    14:00 +20°C° 0 mm 1 mps 733 mmHg 56%
    15:00 +19°C° 0 mm 1 mps 733 mmHg 60%
    16:00 +19°C° 0 mm 1 mps 733 mmHg 64%
    17:00 +16°C° 0 mm 1 mps 733 mmHg 70%
    18:00 +14°C° 0 mm 1 mps 733 mmHg 77%
    19:00 +11°C° 0 mm 0 mps 733 mmHg 84%
    20:00 +11°C° 0 mm 0 mps 734 mmHg 85%
    21:00 +11°C° 0 mm 0 mps 734 mmHg 86%
    22:00 +10°C° 0 mm 0 mps 734 mmHg 86%
    23:00 +10°C° 0 mm 0 mps 734 mmHg 88%

    Day after tomorrow, 21 October, Sunday

    Time Temperature Precipitation Wind Pressure Humidity
    00:00 +10°C° 0 mm 0 mps 734 mmHg 89%
    01:00 +10°C° 0 mm 0 mps 734 mmHg 90%
    02:00 +9°C° 0 mm 0 mps 734 mmHg 90%
    03:00 +9°C° 0 mm 0 mps 734 mmHg 91%
    04:00 +8°C° 0 mm 0 mps 733 mmHg 92%
    05:00 +8°C° 0 mm 0 mps 733 mmHg 91%
    06:00 +8°C° 0 mm 0 mps 733 mmHg 91%
    07:00 +8°C° 0 mm 0 mps 733 mmHg 90%
    08:00 +11°C° 0 mm 1 mps 733 mmHg 83%
    09:00 +12°C° 0 mm 1 mps 733 mmHg 75%
    10:00 +14°C° 0 mm 1 mps 733 mmHg 67%
    11:00 +14°C° 0 mm 1 mps 733 mmHg 66%
    12:00 +14°C° 0 mm 1 mps 732 mmHg 64%
    13:00 +15°C° 0 mm 2 mps 732 mmHg 63%
    14:00 +14°C° 0 mm 2 mps 732 mmHg 65%
    15:00 +13°C° 0 mm 1 mps 731 mmHg 68%
    16:00 +13°C° 0 mm 1 mps 731 mmHg 71%
    17:00 +12°C° 0 mm 1 mps 731 mmHg 75%
    18:00 +10°C° 0 mm 1 mps 732 mmHg 79%
    19:00 +9°C° 0 mm 1 mps 732 mmHg 84%
    20:00 +9°C° 0 mm 1 mps 732 mmHg 84%
    21:00 +8°C° 0 mm 1 mps 732 mmHg 84%
    22:00 +8°C° 0 mm 1 mps 732 mmHg 85%
    23:00 +7°C° 0 mm 1 mps 732 mmHg 86%

    22 October, Monday

    Time Temperature Precipitation Wind Pressure Humidity
    00:00 +7°C° 0 mm 1 mps 732 mmHg 87%
    01:00 +6°C° 0 mm 1 mps 732 mmHg 88%
    02:00 +6°C° 0 mm 1 mps 732 mmHg 89%
    03:00 +6°C° 0 mm 1 mps 732 mmHg 89%
    04:00 +5°C° 0 mm 1 mps 732 mmHg 90%
    05:00 +5°C° 0 mm 1 mps 732 mmHg 89%
    06:00 +5°C° 0 mm 1 mps 732 mmHg 87%
    07:00 +5°C° 0 mm 1 mps 732 mmHg 86%
    08:00 +6°C° 0 mm 2 mps 732 mmHg 73%
    09:00 +9°C° 0 mm 2 mps 732 mmHg 61%
    10:00 +11°C° 0 mm 3 mps 732 mmHg 48%
    11:00 +12°C° 0 mm 3 mps 732 mmHg 45%
    12:00 +13°C° 0 mm 3 mps 731 mmHg 41%
    13:00 +14°C° 0 mm 3 mps 731 mmHg 38%
    14:00 +15°C° 0 mm 2 mps 731 mmHg 42%
    15:00 +14°C° 0 mm 2 mps 731 mmHg 46%
    16:00 +14°C° 0 mm 1 mps 731 mmHg 51%
    17:00 +12°C° 0 mm 1 mps 731 mmHg 56%
    18:00 +10°C° 0 mm 1 mps 731 mmHg 62%
    19:00 +8°C° 0 mm 1 mps 731 mmHg 67%
    20:00 +7°C° 0 mm 1 mps 732 mmHg 69%
    21:00 +7°C° 0 mm 1 mps 732 mmHg 72%
    22:00 +6°C° 0 mm 1 mps 732 mmHg 74%
    23:00 +6°C° 0 mm 1 mps 731 mmHg 75%

    23 October, Tuesday

    Time Temperature Precipitation Wind Pressure Humidity
    00:00 +6°C° 0 mm 1 mps 731 mmHg 76%
    01:00 +5°C° 0 mm 1 mps 731 mmHg 77%
    02:00 +6°C° 0 mm 1 mps 731 mmHg 76%
    03:00 +6°C° 0 mm 1 mps 731 mmHg 76%
    04:00 +6°C° 0 mm 1 mps 730 mmHg 76%
    05:00 +6°C° 0.2 mm 1 mps 730 mmHg 77%
    06:00 +7°C° 0.2 mm 1 mps 730 mmHg 79%
    07:00 +7°C° 0.2 mm 1 mps 730 mmHg 80%
    08:00 +8°C° 0.1 mm 1 mps 731 mmHg 78%
    09:00 +9°C° 0.1 mm 1 mps 731 mmHg 75%
    10:00 +10°C° 0.1 mm 1 mps 731 mmHg 73%
    11:00 +10°C° 0.1 mm 2 mps 731 mmHg 71%
    12:00 +10°C° 0.1 mm 2 mps 731 mmHg 70%
    13:00 +10°C° 0.1 mm 2 mps 731 mmHg 68%
    14:00 +10°C° 0 mm 2 mps 731 mmHg 67%
    15:00 +9°C° 0 mm 2 mps 731 mmHg 65%
    16:00 +9°C° 0 mm 2 mps 731 mmHg 64%
    17:00 +8°C° 0 mm 2 mps 731 mmHg 69%
    18:00 +7°C° 0 mm 1 mps 731 mmHg 74%
    19:00 +5°C° 0 mm 1 mps 731 mmHg 78%
    20:00 +5°C° 0 mm 1 mps 732 mmHg 79%
    21:00 +4°C° 0 mm 1 mps 732 mmHg 80%
    22:00 +4°C° 0 mm 1 mps 732 mmHg 81%
    23:00 +4°C° 0 mm 1 mps 732 mmHg 81%

    24 October, Wednesday

    Time Temperature Precipitation Wind Pressure Humidity
    00:00 +4°C° 0 mm 1 mps 731 mmHg 82%
    01:00 +4°C° 0 mm 1 mps 731 mmHg 83%
    02:00 +4°C° 0 mm 1 mps 731 mmHg 83%
    03:00 +4°C° 0 mm 1 mps 731 mmHg 83%
    04:00 +4°C° 0 mm 1 mps 731 mmHg 83%
    05:00 +4°C° 0 mm 1 mps 730 mmHg 81%
    06:00 +5°C° 0 mm 1 mps 730 mmHg 80%
    07:00 +5°C° 0 mm 1 mps 730 mmHg 79%
    08:00 +7°C° 0 mm 1 mps 730 mmHg 73%
    09:00 +9°C° 0 mm 1 mps 730 mmHg 66%
    10:00 +11°C° 0 mm 1 mps 730 mmHg 60%
    11:00 +11°C° 0.3 mm 1 mps 729 mmHg 64%
    12:00 +12°C° 0.3 mm 1 mps 729 mmHg 68%
    13:00 +12°C° 0.3 mm 1 mps 728 mmHg 72%
    14:00 +11°C° 0.3 mm 1 mps 728 mmHg 75%
    15:00 +11°C° 0.3 mm 1 mps 728 mmHg 79%
    16:00 +11°C° 0.3 mm 1 mps 728 mmHg 82%
    17:00 +10°C° 0 mm 1 mps 728 mmHg 83%
    18:00 +10°C° 0 mm 1 mps 728 mmHg 84%
    19:00 +9°C° 0 mm 1 mps 728 mmHg 85%
    20:00 +9°C° 0 mm 1 mps 728 mmHg 85%
    21:00 +9°C° 0 mm 1 mps 728 mmHg 85%
    22:00 +9°C° 0 mm 1 mps 729 mmHg 85%
    23:00 +9°C° 0 mm 1 mps 729 mmHg 85%
    Show more